#timestamp,LO_Frequency,Hit,StdDev 
1610474415.6,286047012.3,N
1610474435.4,286047007.9,N
1610474455.2,286047009.2,N
1610474475.1,286047009.1,N
1610474476.0,286047009.1,N
1610474495.8,286047008.8,N
1610474515.7,286047006.7,N
1610474535.5,286047003.3,N
1610474555.3,286047003.6,N
1610474575.2,286047001.4,N
1610474595.0,286047002.4,N
1610474595.9,286047002.4,N
1610474615.7,286047005.6,N
1610474635.6,286047006.4,N
1610474655.4,286047008.5,N
1610474675.3,286047007.3,N
1610474695.1,286047005.4,N
1610474715.8,286047004.4,N
1610474735.7,286047004.3,N
1610474755.5,286047003.4,N
1610474775.4,286047005.5,N
1610474795.2,286047005.3,N
1610474815.0,286047005.5,N
1610474815.9,286047005.5,N
1610474835.8,286047004.7,N
1610474855.6,286046999.8,N
1610474875.4,286047001.2,N
1610474895.3,286046998.4,N
1610474915.1,286046995.7,N
1610474935.9,286046997.8,N
1610474955.7,286046999.6,N
1610474975.5,286047001.2,N
1610474995.4,286047002.4,N
1610475015.2,286047000.5,N
1610475035.1,286046998.3,N
1610475036.0,286046998.3,N
1610475055.8,286046998.4,N
1610475075.6,286047000.8,N
1610475095.5,286046997.2,N
1610475115.3,286046997.7,N
1610475135.1,286046999.2,N
1610475155.9,286047000.9,N
1610475175.7,286047000.7,N
1610475195.6,286047000.7,N
1610475215.4,286046999.3,N
1610475235.2,286046999.4,N
1610475255.1,286046995.0,N
1610475286.0,286046994.5,E
1610475295.0,286046995.1,N
1610475295.9,286046995.1,P
1610475315.8,286046999.9,P
1610475335.6,286047002.8,N
1610475355.4,286047001.3,N
1610475375.3,286047004.0,N
1610475395.1,286047002.0,N
1610475415.9,286047002.3,N
1610475435.7,286046999.4,N
1610475455.5,286046999.4,N
1610475475.4,286046997.0,N
1610475495.2,286046996.8,N
1610475515.1,286046999.3,N
1610475516.0,286046999.3,N
1610475535.8,286046998.9,N
1610475555.6,286046996.5,N
1610475575.5,286046996.5,N
1610475595.3,286047001.1,N
1610475615.1,286047000.5,N
1610475635.9,286046999.3,N
1610475655.7,286047002.4,N
1610475675.6,286047007.5,N
1610475695.4,286047008.5,N
1610475715.2,286047009.0,N
1610475735.1,286047012.3,Y
1610475736.0,286047012.3,P
1610475755.8,286047006.7,N
1610475775.7,286047002.9,N
1610475795.5,286047002.8,N
1610475815.3,286047000.5,N
1610475835.2,286046999.8,N
1610475855.0,286046999.9,N
1610475855.9,286046999.9,N
1610475875.8,286046998.7,N
1610475895.6,286046999.3,N
1610475915.4,286046998.4,N
1610475935.3,286046999.8,N
1610475955.1,286046999.8,N
1610475975.8,286046997.5,N
1610475995.7,286046997.9,N
1610476015.5,286046997.4,N
1610476035.4,286046997.4,N
1610476055.2,286046995.2,N
1610476075.0,286046996.7,N
1610476075.9,286046996.7,N
1610476095.8,286046996.7,N
1610476115.6,286047002.6,N
1610476135.4,286047001.9,N
1610476155.3,286047000.2,N
1610476175.1,286046997.4,N
1610476195.9,286046995.0,N
1610476215.7,286046999.6,N
1610476235.5,286046999.0,N
1610476255.4,286046996.5,N
1610476275.2,286046997.0,N
1610476295.0,286046995.7,N
1610476296.0,286046995.7,N
1610476315.8,286046993.5,N
1610476335.6,286046993.8,N
1610476355.5,286046996.3,N
1610476375.3,286046995.2,N
1610476395.1,286046997.1,N
1610476415.9,286046997.1,N
1610476435.7,286046997.2,N
1610476455.6,286046999.5,N
1610476475.4,286046997.9,N
1610476495.2,286046991.7,Y
1610476515.1,286046995.9,P
1610476516.0,286046995.9,P
1610476535.8,286046994.2,P
1610476555.6,286046998.3,N
1610476575.5,286047001.0,N
1610476595.3,286047000.2,N
1610476615.2,286046998.1,N
1610476635.9,286047000.5,N
1610476655.7,286046996.9,N
1610476675.6,286046997.7,N
1610476695.4,286046994.7,N
1610476715.3,286046994.3,N
1610476735.1,286046998.6,N
1610476736.0,286046998.6,N
1610476755.8,286047008.7,Y
1610476775.7,286047020.1,P
1610476795.5,286047021.8,N
1610476815.3,286047014.4,N
1610476835.2,286047012.3,N
1610476855.0,286047007.1,N
1610476855.9,286047007.1,N
1610476875.8,286047004.8,N
1610476895.6,286047004.1,N
1610476915.4,286047002.6,N
1610476935.3,286046998.3,N
1610476955.1,286046999.5,N
1610476975.9,286046997.7,N
1610476995.7,286046998.3,N
1610477015.5,286046998.9,N
1610477035.4,286046998.8,N
1610477055.2,286046999.2,N
1610477075.0,286046997.0,N
1610477075.9,286046997.0,N
1610477095.8,286046997.9,N
1610477115.6,286046997.5,N
1610477135.5,286046995.4,N
1610477155.3,286046997.9,N
1610477175.1,286046995.6,N
1610477195.9,286046997.8,N
1610477215.7,286046999.0,N
1610477235.6,286046998.7,N
1610477255.4,286046997.3,N
1610477275.2,286046997.2,N
1610477295.1,286046999.7,N
1610477296.0,286046999.7,N
1610477315.8,286047007.2,N
1610477335.6,286047004.7,N
1610477355.5,286047005.7,N
1610477375.3,286047003.2,N
1610477395.2,286047001.6,N
1610477415.9,286047001.9,N
1610477435.7,286047002.1,N
1610477455.6,286046999.9,N
1610477475.4,286046998.2,N
1610477495.2,286046999.2,N
1610477515.1,286046998.7,N
1610477516.0,286046998.7,N
1610477535.8,286047004.8,N
1610477555.7,286047006.1,N
1610477575.5,286047009.2,N
1610477595.3,286047006.8,N
1610477615.2,286047001.3,N
1610477635.0,286047002.5,N
1610477635.9,286047002.5,N
1610477655.8,286047002.4,N
1610477675.6,286047000.8,N
1610477695.4,286046999.3,N
1610477715.3,286046999.2,N
1610477735.1,286046993.5,N
1610477755.8,286046994.1,N
1610477775.7,286046994.1,N
1610477795.5,286046994.8,N
1610477815.4,286046992.9,N
1610477835.2,286046990.9,N
1610477855.0,286046992.7,N
1610477855.9,286046992.7,N
1610477875.8,286046990.2,N
1610477895.6,286046990.1,N
1610477915.5,286046989.9,N
1610477935.3,286046987.0,N
1610477955.1,286046989.3,N
1610477975.9,286046989.7,N
1610477995.7,286046989.8,N
